�N����,����,�~����,�C��,���x,�C��,����,���ϕ���,�ő�u�ԕ���,�ő厞����,���˗�,�I�_���x,�n�����x,�ő啗���N��,DTYPE
"22/11/08","00:10",0.0,10.1,88.5,1015.6,335.0,2.0,3.4,347.9,0.00,8.3,14.6,"00:08:26",1
"22/11/08","00:20",0.0,9.9,88.7,1015.6,332.3,2.2,3.4,328.5,0.00,8.2,14.6,"00:18:50",1
"22/11/08","00:30",0.0,9.8,89.0,1015.6,328.4,2.2,3.7,323.6,0.00,8.1,14.5,"00:20:56",1
"22/11/08","00:40",0.0,9.9,89.5,1016.1,331.4,2.2,4.2,333.4,0.00,8.3,14.6,"00:39:54",1
"22/11/08","00:50",0.0,10.5,89.1,1015.9,329.9,3.1,4.5,310.4,0.00,8.8,14.4,"00:47:38",1
"22/11/08","01:00",0.0,10.2,88.9,1015.9,332.9,2.5,4.5,342.5,0.00,8.5,14.5,"00:50:42",1
"22/11/08","01:10",0.0,10.0,89.0,1015.9,334.7,2.1,4.2,353.9,0.00,8.3,14.4,"01:04:48",1
"22/11/08","01:20",0.0,9.9,89.2,1016.1,334.9,2.6,4.1,332.0,0.00,8.2,14.3,"01:14:32",1
"22/11/08","01:30",0.0,9.8,89.3,1016.1,325.9,2.3,3.6,338.1,0.00,8.2,14.4,"01:21:52",1
"22/11/08","01:40",0.0,9.6,89.6,1015.9,317.4,2.1,3.1,306.7,0.00,8.0,14.3,"01:34:56",1
"22/11/08","01:50",0.0,9.4,89.9,1016.4,329.0,2.0,3.4,333.2,0.00,7.9,14.2,"01:40:16",1
"22/11/08","02:00",0.0,9.3,90.2,1015.9,326.6,2.0,3.4,345.8,0.00,7.8,14.4,"01:57:12",1
"22/11/08","02:10",0.0,9.3,90.5,1016.1,324.2,2.2,3.3,338.4,0.00,7.9,14.2,"02:00:56",1
"22/11/08","02:20",0.0,9.2,90.7,1015.9,308.1,1.7,2.7,323.7,0.00,7.8,14.2,"02:19:36",1
"22/11/08","02:30",0.0,8.8,90.8,1016.1,288.5,1.2,1.6,292.6,0.00,7.4,14.2,"02:28:32",1
"22/11/08","02:40",0.0,8.7,91.3,1015.9,306.9,1.6,2.4,332.9,0.00,7.4,14.2,"02:30:02",1
"22/11/08","02:50",0.0,8.8,91.6,1015.9,317.0,1.8,2.6,333.7,0.00,7.5,14.1,"02:40:24",1
"22/11/08","03:00",0.0,8.7,91.8,1015.9,307.3,1.6,2.4,317.7,0.00,7.5,13.9,"02:59:44",1
"22/11/08","03:10",0.0,8.5,92.0,1015.4,302.9,1.3,2.5,331.7,0.00,7.3,14.1,"03:02:32",1
"22/11/08","03:20",0.0,8.2,92.4,1015.6,287.0,1.5,2.0,267.3,0.00,7.1,14.0,"03:19:12",1
"22/11/08","03:30",0.0,8.4,92.7,1015.2,295.3,1.8,2.6,303.2,0.00,7.3,14.1,"03:23:44",1
"22/11/08","03:40",0.0,8.6,92.9,1015.6,318.0,2.1,3.3,309.6,0.00,7.6,14.1,"03:32:16",1
"22/11/08","03:50",0.0,8.5,93.1,1015.4,310.2,1.8,3.6,325.8,0.00,7.5,13.8,"03:40:24",1
"22/11/08","04:00",0.0,8.3,93.3,1015.6,291.8,1.0,1.7,263.4,0.00,7.3,14.1,"03:59:36",1
"22/11/08","04:10",0.0,7.9,93.5,1015.6,281.7,1.2,2.1,310.4,0.00,7.0,14.0,"04:07:36",1
"22/11/08","04:20",0.0,7.6,93.8,1015.9,292.5,1.6,2.2,289.3,0.00,6.7,13.8,"04:18:16",1
"22/11/08","04:30",0.0,7.6,94.1,1015.9,288.1,1.5,3.1,300.0,0.00,6.8,13.9,"04:28:40",1
"22/11/08","04:40",0.0,7.8,94.2,1015.9,295.2,1.3,1.8,303.2,0.00,7.0,13.7,"04:30:24",1
"22/11/08","04:50",0.0,7.7,94.4,1015.9,298.5,2.1,2.7,321.9,0.00,6.9,13.8,"04:47:12",1
"22/11/08","05:00",0.0,8.1,94.7,1016.1,291.8,2.0,2.9,311.8,0.00,7.3,13.8,"04:54:56",1
"22/11/08","05:10",0.0,8.2,94.6,1015.9,285.4,1.5,2.5,301.7,0.00,7.4,13.8,"05:00:08",1
"22/11/08","05:20",0.0,8.3,94.7,1015.9,276.3,1.6,2.2,270.3,0.00,7.5,13.7,"05:15:12",1
"22/11/08","05:30",0.0,7.9,94.9,1016.1,312.7,2.2,2.9,336.7,0.00,7.2,13.8,"05:27:28",1
"22/11/08","05:40",0.0,7.7,95.2,1016.6,303.7,2.1,3.1,321.6,0.00,7.0,13.5,"05:32:40",1
"22/11/08","05:50",0.0,7.7,95.3,1016.4,297.0,2.0,2.5,312.9,0.00,7.0,13.6,"05:44:16",1
"22/11/08","06:00",0.0,7.3,95.4,1016.4,296.0,1.8,2.5,313.7,0.00,6.7,13.6,"05:58:48",1
"22/11/08","06:10",0.0,7.0,95.6,1016.4,294.7,1.7,2.0,307.3,0.00,6.4,13.6,"06:08:00",1
"22/11/08","06:20",0.0,6.8,95.9,1016.4,297.0,1.6,2.1,275.8,0.00,6.2,13.6,"06:19:44",1
"22/11/08","06:30",0.0,6.6,96.0,1016.6,290.2,1.7,2.8,321.0,0.00,6.0,13.5,"06:29:36",1
"22/11/08","06:40",0.0,6.4,96.2,1016.4,296.4,1.8,2.6,287.6,0.00,5.9,13.4,"06:39:28",1
"22/11/08","06:50",0.0,6.4,96.3,1016.1,299.6,1.7,2.7,318.5,0.00,5.9,13.5,"06:49:04",1
"22/11/08","07:00",0.0,6.3,96.3,1016.4,294.2,1.6,2.1,308.2,0.00,5.8,13.6,"06:51:36",1
"22/11/08","07:10",0.0,6.4,96.5,1016.4,296.8,1.6,2.0,307.0,0.00,5.9,13.5,"07:03:20",1
"22/11/08","07:20",0.0,6.6,96.7,1016.6,293.6,1.7,2.7,317.4,0.00,6.2,13.4,"07:19:20",1
"22/11/08","07:30",0.0,7.1,96.6,1016.8,286.6,1.5,2.0,276.5,0.00,6.6,13.4,"07:22:32",1
"22/11/08","07:40",0.0,7.3,96.6,1016.8,294.9,0.8,1.6,275.8,0.00,6.8,13.3,"07:35:04",1
"22/11/08","07:50",0.0,7.8,96.7,1017.1,288.9,1.2,2.2,324.6,0.01,7.3,13.2,"07:43:28",1
"22/11/08","08:00",0.0,8.4,96.7,1017.5,319.4,1.5,2.0,322.7,0.02,7.9,13.2,"07:55:52",1
"22/11/08","08:10",0.0,8.8,96.6,1017.5,314.8,1.6,2.2,326.8,0.03,8.3,13.2,"08:08:00",1
"22/11/08","08:20",0.0,9.6,96.7,1017.5,290.9,0.7,1.2,320.4,0.04,9.1,13.4,"08:15:44",1
"22/11/08","08:30",0.0,10.4,96.5,1017.8,277.9,0.5,1.0,328.6,0.06,9.9,13.3,"08:22:56",1
"22/11/08","08:40",0.0,10.9,96.5,1018.0,293.7,0.5,1.2,305.8,0.08,10.4,13.2,"08:38:48",1
"22/11/08","08:50",0.0,11.0,96.2,1018.0,308.1,0.7,1.6,332.4,0.11,10.5,13.2,"08:44:00",1
"22/11/08","09:00",0.0,11.3,95.5,1018.2,308.4,1.1,2.1,341.3,0.14,10.6,13.2,"08:52:24",1
"22/11/08","09:10",0.0,11.9,94.7,1018.5,287.8,0.8,2.0,326.6,0.16,11.1,13.0,"09:05:04",1
"22/11/08","09:20",0.0,12.4,94.1,1018.7,289.0,1.0,2.8,326.5,0.19,11.5,13.1,"09:13:20",1
"22/11/08","09:30",0.0,12.8,93.2,1018.7,249.2,0.6,1.4,235.3,0.21,11.8,13.2,"09:26:40",1
"22/11/08","09:40",0.0,13.1,91.3,1019.0,232.8,0.7,1.7,245.3,0.24,11.8,13.3,"09:34:32",1
"22/11/08","09:50",0.0,13.6,89.5,1019.0,208.0,0.8,1.8,227.1,0.26,11.9,13.4,"09:44:56",1
"22/11/08","10:00",0.0,14.4,85.8,1018.7,252.9,0.6,1.8,246.3,0.28,12.1,13.3,"09:54:32",1
"22/11/08","10:10",0.0,15.0,81.6,1019.0,254.8,0.7,2.2,248.7,0.30,11.9,13.4,"10:09:04",1
"22/11/08","10:20",0.0,15.7,78.0,1018.5,225.4,0.6,1.4,205.4,0.32,11.9,13.5,"10:10:32",1
"22/11/08","10:30",0.0,16.3,74.6,1018.5,228.6,0.5,1.7,127.2,0.34,11.8,13.6,"10:20:40",1
"22/11/08","10:40",0.0,17.0,71.1,1018.0,225.8,0.7,1.8,217.8,0.35,11.8,13.4,"10:35:28",1
"22/11/08","10:50",0.0,17.8,69.0,1017.8,208.5,1.0,2.8,204.6,0.37,12.1,13.6,"10:45:36",1
"22/11/08","11:00",0.0,18.0,66.9,1017.5,217.9,1.2,3.2,237.7,0.38,11.8,13.6,"10:54:00",1
"22/11/08","11:10",0.0,18.5,65.3,1017.1,248.4,1.1,3.2,328.0,0.40,11.9,13.8,"11:00:02",1
"22/11/08","11:20",0.0,18.6,61.8,1016.8,299.8,1.5,4.2,321.9,0.40,11.2,13.7,"11:18:56",1
"22/11/08","11:30",0.0,19.3,61.4,1016.8,288.1,1.1,2.1,295.2,0.41,11.7,13.9,"11:20:32",1
"22/11/08","11:40",0.0,19.4,59.2,1016.6,275.2,1.5,4.7,331.7,0.41,11.3,13.9,"11:38:00",1
"22/11/08","11:50",0.0,19.3,59.0,1016.6,286.9,1.5,4.1,338.5,0.43,11.1,14.0,"11:48:56",1
"22/11/08","12:00",0.0,19.3,59.0,1016.8,300.7,1.8,3.5,356.8,0.45,11.1,14.0,"11:56:40",1
"22/11/08","12:10",0.0,19.3,58.5,1016.4,277.1,1.7,4.4,340.6,0.42,11.0,14.3,"12:08:08",1
"22/11/08","12:20",0.0,19.3,58.8,1016.4,290.6,2.0,4.4,335.0,0.44,11.1,14.3,"12:11:20",1
"22/11/08","12:30",0.0,19.5,58.9,1015.6,288.2,2.1,4.9,348.3,0.40,11.3,14.4,"12:21:04",1
"22/11/08","12:40",0.0,19.7,57.2,1015.6,277.6,1.6,3.6,268.0,0.44,11.0,14.6,"12:37:44",1
"22/11/08","12:50",0.0,19.6,57.6,1015.9,267.8,2.2,4.7,241.7,0.39,11.1,14.6,"12:46:40",1
"22/11/08","13:00",0.0,20.1,57.0,1016.1,283.9,1.6,4.5,327.1,0.45,11.4,14.4,"12:54:24",1
"22/11/08","13:10",0.0,20.5,52.4,1015.6,315.5,1.7,5.2,341.7,0.43,10.5,14.8,"13:00:02",1
"22/11/08","13:20",0.0,20.3,51.6,1015.9,305.1,2.7,7.0,322.8,0.39,10.1,14.8,"13:13:52",1
"22/11/08","13:30",0.0,20.1,50.1,1015.6,298.9,2.5,5.1,349.5,0.38,9.4,14.8,"13:20:40",1
"22/11/08","13:40",0.0,19.8,51.5,1015.4,291.6,2.1,6.5,256.4,0.26,9.6,14.9,"13:34:48",1
"22/11/08","13:50",0.0,20.3,50.3,1015.2,310.2,2.2,5.9,347.1,0.39,9.7,14.9,"13:46:00",1
"22/11/08","14:00",0.0,20.5,49.6,1015.2,320.6,1.6,4.4,326.6,0.24,9.7,15.2,"13:58:24",1
"22/11/08","14:10",0.0,19.9,50.6,1015.2,321.9,2.0,4.1,329.4,0.15,9.4,15.2,"14:02:00",1
"22/11/08","14:20",0.0,19.7,51.1,1015.4,321.7,2.5,5.7,344.2,0.18,9.4,15.2,"14:18:24",1
"22/11/08","14:30",0.0,19.6,51.9,1015.4,319.0,2.3,5.0,355.8,0.15,9.5,15.4,"14:22:40",1
"22/11/08","14:40",0.0,19.0,54.5,1015.4,338.8,2.7,5.7,334.5,0.07,9.7,15.2,"14:31:52",1
"22/11/08","14:50",0.0,18.9,55.1,1015.6,349.4,2.3,6.4,344.9,0.12,9.7,15.4,"14:44:32",1
"22/11/08","15:00",0.0,19.0,56.2,1015.6,0.9,2.1,5.2,24.3,0.15,10.1,15.4,"14:50:56",1
"22/11/08","15:10",0.0,18.4,57.6,1015.9,2.4,2.6,4.7,14.6,0.09,9.9,15.3,"15:04:24",1
"22/11/08","15:20",0.0,18.0,59.6,1015.9,355.7,2.3,6.2,330.3,0.06,10.1,15.6,"15:15:36",1
"22/11/08","15:30",0.0,18.5,60.5,1016.1,352.6,2.1,5.4,352.4,0.14,10.8,15.2,"15:29:20",1
"22/11/08","15:40",0.0,19.0,59.2,1016.1,350.6,2.1,4.1,3.2,0.16,10.9,15.2,"15:36:00",1
"22/11/08","15:50",2.4,60.0,100.0,1016.4,326.7,1.6,6.2,346.8,0.04,60.0,130.0,"15:40:48",1
"22/11/08","16:00",0.0,60.0,100.0,1016.4,309.5,0.7,0.9,312.8,0.00,60.0,130.0,"15:50:16",1
"22/11/08","16:10",0.0,60.0,100.0,1017.8,310.8,1.0,1.3,312.2,0.00,60.0,130.0,"16:07:28",1
"22/11/08","16:20",0.8,60.0,100.0,1018.7,309.6,0.6,1.1,316.3,0.00,60.0,130.0,"16:13:52",1
"22/11/08","16:30",0.0,60.0,100.0,1018.5,309.4,0.6,1.0,318.4,0.00,60.0,130.0,"16:29:20",1
"22/11/08","16:40",0.0,60.0,100.0,1018.2,314.8,0.7,0.9,308.9,0.00,60.0,130.0,"16:34:16",1
"22/11/08","16:50",0.0,60.0,100.0,1017.8,315.7,1.0,1.2,312.6,0.00,60.0,130.0,"16:40:24",1
"22/11/08","17:00",0.0,60.0,100.0,1017.8,319.6,0.8,1.0,318.4,0.00,60.0,130.0,"16:50:24",1
"22/11/08","17:10",0.2,60.0,100.0,1019.4,317.1,0.7,1.0,314.7,0.00,60.0,130.0,"17:01:36",1
"22/11/08","17:20",0.2,60.0,100.0,1020.1,313.6,0.5,1.0,314.6,0.00,60.0,130.0,"17:11:52",1
"22/11/08","17:30",0.0,60.0,100.0,1020.1,314.9,0.7,1.0,314.6,0.00,60.0,130.0,"17:23:44",1
"22/11/08","17:40",0.0,60.0,100.0,1019.9,314.7,0.6,0.8,314.6,0.00,60.0,130.0,"17:30:56",1
"22/11/08","17:50",0.0,60.0,100.0,1020.1,315.3,0.6,1.0,319.6,0.00,60.0,130.0,"17:43:20",1
"22/11/08","18:00",0.0,60.0,100.0,1020.4,321.4,0.7,1.0,324.7,0.00,60.0,130.0,"17:54:08",1
"22/11/08","18:10",0.0,60.0,100.0,1020.6,316.7,0.7,1.1,316.2,0.00,60.0,130.0,"18:08:08",1
"22/11/08","18:20",0.0,60.0,100.0,1020.1,314.9,0.8,1.0,318.3,0.00,60.0,130.0,"18:10:08",1
"22/11/08","18:30",0.0,60.0,100.0,1020.6,316.1,0.8,1.1,316.4,0.00,60.0,130.0,"18:20:16",1
"22/11/08","18:40",0.0,60.0,100.0,1020.6,315.0,0.8,1.0,311.2,0.00,60.0,130.0,"18:36:40",1
"22/11/08","18:50",0.0,60.0,100.0,1020.4,315.2,0.7,1.1,316.4,0.00,60.0,130.0,"18:42:32",1
"22/11/08","19:00",0.0,60.0,100.0,1020.6,309.4,0.7,1.1,306.3,0.00,60.0,130.0,"18:50:24",1
"22/11/08","19:10",0.0,60.0,100.0,1020.8,309.0,1.0,1.0,308.8,0.00,60.0,130.0,"19:00:56",1
"22/11/08","19:20",0.0,60.0,100.0,1021.3,305.5,0.8,1.1,308.7,0.00,60.0,130.0,"19:12:46",1
"22/11/08","19:30",0.0,60.0,100.0,1021.1,305.4,0.7,0.8,305.3,0.00,60.0,130.0,"19:20:40",1
"22/11/08","19:40",0.0,60.0,100.0,1021.1,307.1,0.7,0.8,304.8,0.00,60.0,130.0,"19:30:08",1
"22/11/08","19:50",0.0,60.0,100.0,1021.3,304.0,0.6,0.8,304.1,0.00,60.0,130.0,"19:40:56",1
"22/11/08","20:00",0.0,60.0,100.0,1021.1,301.4,0.5,0.5,302.9,0.00,60.0,130.0,"19:50:08",1
"22/11/08","20:10",0.0,60.0,100.0,1021.5,301.1,0.3,0.4,298.1,0.00,60.0,130.0,"20:00:24",1
"22/11/08","20:20",0.0,60.0,100.0,1021.8,304.1,0.5,0.5,304.6,0.00,60.0,130.0,"20:14:56",1
"22/11/08","20:30",0.0,60.0,100.0,1021.5,304.6,0.5,0.5,299.8,0.00,60.0,130.0,"20:23:12",1
"22/11/08","20:40",0.0,60.0,100.0,1021.8,300.3,0.5,0.5,301.3,0.00,60.0,130.0,"20:31:20",1
"22/11/08","20:50",0.0,60.0,100.0,1021.3,296.5,0.6,0.8,290.2,0.00,60.0,130.0,"20:47:12",1
"22/11/08","21:00",0.0,60.0,100.0,1021.8,296.7,0.7,0.8,292.7,0.00,60.0,130.0,"20:51:12",1
"22/11/08","21:10",0.0,60.0,100.0,1021.8,297.7,0.8,0.9,290.9,0.00,60.0,130.0,"21:01:52",1
"22/11/08","21:20",0.0,60.0,100.0,1021.8,294.6,0.8,0.9,291.4,0.00,60.0,130.0,"21:10:56",1
"22/11/08","21:30",0.0,60.0,100.0,1021.3,292.4,0.7,0.9,291.4,0.00,60.0,130.0,"21:21:28",1
"22/11/08","21:40",0.0,60.0,100.0,1022.0,289.3,0.7,0.9,287.5,0.00,60.0,130.0,"21:30:48",1
"22/11/08","21:50",0.0,60.0,100.0,1021.8,300.6,1.0,1.0,306.9,0.00,60.0,130.0,"21:40:02",1
"22/11/08","22:00",0.0,60.0,100.0,1021.8,302.8,1.0,1.0,306.1,0.00,60.0,130.0,"21:51:02",1
"22/11/08","22:10",0.0,60.0,100.0,1022.3,300.9,1.0,1.0,302.0,0.00,60.0,130.0,"22:02:04",1
"22/11/08","22:20",0.0,60.0,100.0,1021.8,301.1,1.1,1.1,302.0,0.00,60.0,130.0,"22:13:12",1
"22/11/08","22:30",0.0,60.0,100.0,1022.3,300.9,1.0,1.0,303.3,0.00,60.0,130.0,"22:21:56",1
"22/11/08","22:40",0.0,60.0,100.0,1022.3,292.8,0.8,0.9,297.9,0.00,60.0,130.0,"22:31:54",1
"22/11/08","22:50",0.0,60.0,100.0,1022.3,294.2,0.8,0.9,295.6,0.00,60.0,130.0,"22:40:10",1
"22/11/08","23:00",0.0,60.0,100.0,1022.3,295.0,0.8,0.9,294.7,0.00,60.0,130.0,"22:54:32",1
"22/11/08","23:10",0.0,60.0,100.0,1022.0,292.9,0.7,0.8,293.9,0.00,60.0,130.0,"23:00:16",1
"22/11/08","23:20",0.0,60.0,100.0,1022.0,293.3,0.7,0.8,292.2,0.00,60.0,130.0,"23:10:24",1
"22/11/08","23:30",0.0,60.0,100.0,1022.3,296.3,0.6,0.6,295.0,0.00,60.0,130.0,"23:20:08",1
"22/11/08","23:40",0.0,60.0,100.0,1022.0,299.5,0.6,0.6,302.1,0.00,60.0,130.0,"23:30:08",1
"22/11/08","23:50",0.0,60.0,100.0,1022.3,299.9,0.5,0.5,301.2,0.00,60.0,130.0,"23:40:08",1
"22/11/08","24:00",0.0,60.0,100.0,1022.5,297.5,0.5,0.5,300.1,0.00,60.0,130.0,"23:50:08",1
